Regional Weather Roundup
Issued by NWS

Home | Current Version | Previous Version | Text Only | Print | Product List | Glossary Off
Versions: 1 2 3 4 5 6 7 8 9 10 11 12 13 14 15 16 17 18 19 20 21 22 23 24 25 26 27 28 29 30 31 32 33 34 35 36 37 38 39 40 41 42 43 44 45 46 47 48 49 50

000
ASUS43 KDTX 270810
RWRMI
MICHIGAN HOURLY REGIONAL WEATHER ROUNDUP
NATIONAL WEATHER SERVICE DETROIT/PONTIAC MI
ISSUED BY NATIONAL WEATHER SERVICE GRAND RAPIDS MI
300 AM EST MON FEB 27 2017

NOTE: "FAIR" INDICATES FEW OR NO CLOUDS BELOW 12,000 FEET WITH NO
SIGNIFICANT WEATHER AND/OR OBSTRUCTION TO VISIBILITY.

MIZ047>049-052>055-059>063-066>070-074>076-081>083-270900-
SOUTHEAST LOWER MICHIGAN

CITY           SKY/WX    TMP DP  RH WIND       PRES   REMARKS
ADRIAN         CLEAR     29  23  78 SW6       30.13R WCI  23
ALMA           PTCLDY    36  25  64 SW8       30.04R WCI  30
ANN ARBOR      CLEAR     32  23  69 S8        30.10R WCI  25
BAD AXE        CLOUDY    37  24  59 SW12      30.02R WCI  30
DETROIT CITY   CLEAR     37  22  54 SW12      30.11R WCI  29
DETROIT        PTCLDY    34  22  61 SW10      30.12R WCI  26
FLINT          CLEAR     36  24  62 SW10      30.07R WCI  28
GROSSE ILE     CLEAR     37  23  56 SW10      30.11S WCI  29
HILLSDALE      CLEAR     34  23  64 SW10      30.09S WCI  26
HOWELL         CLEAR     36  23  59 SW8       30.07R WCI  29

CITY           SKY/WX    TMP DP  RH WIND       PRES   REMARKS
JACKSON        CLEAR     37  22  54 SW12      30.08S WCI  29
LANSING        CLEAR     35  23  61 SW12      30.07R WCI  27
MASON          CLEAR     36  25  64 SW9       30.07S WCI  29
MONROE         CLEAR     36  24  64 SW7       30.12S WCI  30
MT. CLEMENS    CLEAR     37  22  54 SW13      30.07R WCI  29
PONTIAC        CLEAR     37  21  52 SW9       30.06R WCI  30
PORT HOPE        N/A     37  26  64 SW7       29.99R WCI  32
PORT HURON     CLEAR     36  21  55 SW7       30.09R WCI  30
TRI CITIES     PTCLDY    37  27  67 SW15      30.03R WCI  28
YPSILANTI      CLEAR     34  24  67 SW10      30.12R WCI  26
$$
MIZ043>046-050>051-056>058-064>065-071>073-077>080-270900-
SOUTHWEST LOWER MICHIGAN

CITY           SKY/WX    TMP DP  RH WIND       PRES   REMARKS
BATTLE CREEK   CLEAR     32  24  72 SW8       30.08R WCI  25
BENTON HARBOR  MOCLDY    38  25  59 SW15      30.10R WCI  29
BIG RAPIDS     CLEAR     32  25  76 W6        30.01R WCI  26
COLDWATER      CLEAR     35  23  61 SW8       30.10S WCI  28
HOLLAND        CLEAR     37  31  78 SW12      30.07R WCI  29
GRAND RAPIDS   MOCLDY    37  28  70 SW13      30.05R WCI  29
KALAMAZOO      CLEAR     35  22  58 SW9       30.09R WCI  28
MARSHALL       CLEAR     35  23  60 SW9G17    30.08F WCI  28
MOUNT PLEASANT MOCLDY    35  28  75 W6        30.02R WCI  30
MUSKEGON       CLEAR     37  28  70 W12       30.06R WCI  29
STURGIS        CLEAR     32  24  72 SW6       30.10F WCI  26
$$
MIZ016>042-270900-
NORTHERN LOWER MICHIGAN

CITY           SKY/WX    TMP DP  RH WIND       PRES   REMARKS
ALPENA         CLOUDY    28  22  78 NW7       30.01R WCI  21
BEAVER ISLAND  PTCLDY    24  14  65 NW9       30.02R WCI  14
BELLAIRE       CLOUDY    28  18  65 N5        30.04R WCI  23
CADILLAC       PTCLDY    26  23  89 NW6       29.98R WCI  19
CHARLEVOIX     CLOUDY    27  15  61 NW9       30.05R WCI  17
GAYLORD        CLOUDY    26  15  63 W5        29.97R WCI  20
HOUGHTON LAKE  PTCLDY    27  22  81 NW8       29.99R WCI  19
MANISTEE       MOCLDY    31  26  82 N6        30.03R WCI  25
OSCODA         CLEAR     26  22  82 SW7       29.99R WCI  19
PELLSTON       CLOUDY    24  13  62 NW8       30.01R WCI  15
TRAVERSE CITY  CLOUDY    29  15  56 N12       30.04R WCI  19
LUDINGTON      CLEAR     34  25  70 W8        30.04R WCI  27
$$
MIZ007>008-015-270900-
EASTERN UPPER MICHIGAN

CITY           SKY/WX    TMP DP  RH WIND       PRES   REMARKS
KINROSS        CLEAR     14  11  87 W7        29.98R WCI   4
MACKINAC ISLAN CLEAR     21  14  72 W10       29.99R WCI  10
NEWBERRY       PTCLDY    12   9  86 SW5       29.99R WCI   4
S. S. MARIE    PTCLDY    24  11  57 W12       29.96R WCI  13
$$
MIZ004>006-011>014-085-270900-
CENTRAL UPPER MICHIGAN

CITY           SKY/WX    TMP DP  RH WIND       PRES   REMARKS
MANISTIQUE     CLEAR     14   8  78 W7        30.02R WCI   4
ESCANABA       CLEAR     15  10  80 W5        30.05R WCI   8
MENOMINEE      CLEAR     22  12  65 NW3       30.06R
SAWYER-GWINN   CLEAR      5   3  91 CALM      29.99R
$$
MIZ001>003-009>011-084-270900-
WESTERN UPPER MICHIGAN

CITY           SKY/WX    TMP DP  RH WIND       PRES   REMARKS
IRON MOUNTAIN  CLEAR      5   1  83 CALM      29.99R
HOUGHTON       CLOUDY    16   4  59 SW5       29.95R WCI   9
COPPER HARBOR    N/A     21   8  57 N8        29.98R WCI  11
IRONWOOD       CLEAR     -5  -9  83 CALM      29.98R
$$

ABBREVIATIONS USED IN REMARKS
   TC - TEMPERATURE IN CELSIUS
  WCI - WIND CHILL INDEX
   HX - HEAT INDEX
  VSB - VISIBILITY





USA.gov is the U.S. government's official web portal to all federal, state and local government web resources and services.